Location: Del Amo
(33.8464°N, 118.2104°W)
Time: 02:38:57
(UTC+00:00)

Transit 4A - Pass Details

Date: 13 September 2024
Orbit: 865 x 977 km, 66.8° (Epoch: 08 October)

Event Time Altitude Azimuth Distance (km) Brightness Sun altitude
Exits shadow 11:26:08 45° 318° (NW) 1,178 8.2 -26.7°
Drops below altitude 10° 11:31:15 10° 14° (NNE) 2,569 10.7 -25.7°
Sets 11:33:54 0° 20° (NNE) 3,530 11.6 -25.2°
